Regional Weather Roundup
Issued by NWS Grand Forks, ND

Home | Current Version | Previous Version | Graphics & Text | Print | Product List | Glossary On
Versions: 1 2 3 4 5 6 7 8 9 10 11 12 13 14 15 16 17 18 19 20 21 22 23 24 25 26 27 28 29 30 31 32 33 34 35 36 37 38 39 40 41 42 43 44 45 46 47 48 49 50
000
ASUS43 KFGF 272110
RWRFGF
PRAIRIE TO PINES  WEATHER ROUNDUP
NATIONAL WEATHER SERVICE EASTERN NORTH DAKOTA/GRAND FORKS ND
400 PM CDT MON APR 27 2015

 **SATELLITE DATA USED TO AUGMENT SKY COVER AT AUTOMATED STATIONS**
 *****  WEATHER ACROSS EASTERN NORTH DAKOTA  *****

CITY           SKY/WX    TMP DP  RH WIND       PRES   REMARKS
GRAND FORKS    CLOUDY    67  42  40 N10       30.17F
GRAND FRKS AFB PTSUNNY   66  42  41 VRB6      30.17F
GRAND FRKS NWS   N/A     64 N/A N/A N5          N/A
DEVILS LAKE    CLOUDY    50  39  66 N14       30.25S
FARGO          MOSUNNY   73  25  16 MISG      30.16F
WAHPETON ARPT  CLEAR     70  16  12 E8        30.18F
$$

 ***** WEATHER ACROSS CENTRAL AND WESTERN NORTH DAKOTA  *****

CITY           SKY/WX    TMP DP  RH WIND       PRES   REMARKS
BISMARCK       CLOUDY    51  41  68 NW13      30.30F
MINOT          CLOUDY    49  41  74 NW8       30.28F
JAMESTOWN      MOSUNNY   64  40  41 NW15      30.19S
MINOT AFB      CLOUDY    49  47  93 NW7       30.28S
GARRISON         N/A     49  42  77 NW12      30.29S
WILLISTON      PTSUNNY   57  41  55 VRB6      30.29F
DICKINSON      CLOUDY    47  38  71 NW8       30.29S
HETTINGER      CLOUDY    48  39  71 NW8       30.31F
$$

 *****  OTHER AIRPORT OBSERVATIONS IN OUR AREA  *****

CITY           SKY/WX    TMP DP  RH WIND       PRES   REMARKS
WALHALLA       FAIR      52  45  76 N14       30.25S
GRAFTON AIRPOR FAIR      57  43  58 N18       30.22R
VALLEY CITY AR FAIR      68  36  30 N10       30.17F
CANDO          CLOUDY    48  43  81 N6        30.27S
CAVALIER APRT  MOCLDY    52  41  66 N8        30.24S
GWINNER        CLEAR     72  30  21 SW5       30.18F
SHEYENNE NWR     N/A     73  23  15 S2        29.95S
ROLLA          NOT AVBL
 ***** THE ABOVE OBSERVATIONS ARE NON NWS ARE NOT QUALITY
       CONTROLLED AND MAY MIS-REPORT RAIN FOR SNOW...
$$

  *****  WEATHER ACROSS NORTHERN MINNESOTA  *****

CITY           SKY/WX    TMP DP  RH WIND       PRES   REMARKS
FLAG ISLAND    PTSUNNY   57  45  62 N9        30.16S
WARROAD        MOSUNNY   66  36  32 E6        30.16S
ROSEAU         PTSUNNY   68  39  34 W9        30.16F
HALLOCK        CLOUDY    61  41  48 NW16      30.21R
THF RVR FALLS  PTSUNNY   70  34  26 NW8       30.17F
BAUDETTE       MOSUNNY   70  28  21 NW8       30.14F
WASKISH        SUNNY     70  32  24 CALM      30.16S
CROOKSTON      PTSUNNY   70  36  28 NW9       30.16F
$$
  *****  WEATHER ACROSS CENTRAL AND WEST MINNESOTA  *****

CITY           SKY/WX    TMP DP  RH WIND       PRES   REMARKS
FOSSTON        PTSUNNY   72  21  15 NW9       30.17F
BEMIDJI        MOSUNNY   69  29  22 NE3       30.14F
PARK RAPIDS    SUNNY     72  23  16 NE8       30.15F
ELBOW LAKE     FAIR      67  24  19 W7        30.18F
WADENA         SUNNY     68  30  24 W7        30.16F
DETROIT LAKES  MOSUNNY   68  27  21 NW9       30.19S
MOORHEAD       MOSUNNY   70  21  16 CALM      30.18S
FERGUS FALLS   SUNNY     68  12  11 E5        30.18F
MORRIS MN      SUNNY     72  21  15 NE5       30.17F
STAPLES        SUNNY     70  21  16 SW5       30.15F
$$
  *****  WEATHER ELSEWHERE ACROSS MINNESOTA  *****

CITY           SKY/WX    TMP DP  RH WIND       PRES   REMARKS
DULUTH         SUNNY     67  25  20 VRB3      30.15F
INTRNTL FALLS  PTSUNNY   66  27  23 NE8       30.15F
ELY            SUNNY     64  21  19 NW7       30.16F
CLOQUET        SUNNY     68  18  14 NW7G20    30.14F
WHEATON        SUNNY     68  27  21 W6        30.20F
BRAINERD       SUNNY     69  21  16 N13       30.16F
HIBBING        SUNNY     68  20  16 VRB6      30.15F
ALEXANDRIA     SUNNY     67  23  19 CALM      30.19F
SAINT CLOUD    SUNNY     69  23  17 NW6       30.16F
MINNEAPOLIS    SUNNY     67  24  19 CALM      30.16F
$$

  *****  WEATHER ACROSS SOUTH DAKOTA  *****

CITY           SKY/WX    TMP DP  RH WIND       PRES   REMARKS
SIOUX FALLS    PTSUNNY   69  27  20 N6        30.17F
BROOKINGS      SUNNY     66  21  18 N5        30.19F
WATERTOWN      SUNNY     68  23  18 S8        30.19F
HURON          SUNNY     71  19  14 CALM      30.17F
SISSETON         N/A     71  20  14 VRB3      30.17F
ABERDEEN       SUNNY     72  25  17 NW8       30.17F
MITCHELL       SUNNY     69  25  19 NW7       30.18F
PIERRE         LGT RAIN  66  42  41 NW26      30.21R
MOBRIDGE       CLOUDY    55  43  63 NW22      30.23S
RAPID CITY     LGT RAIN  46  43  89 N18       30.31F
$$

  *****  SOME WEATHER IN NEARBY STATES *****

CITY           SKY/WX    TMP DP  RH WIND       PRES   REMARKS
GLASGOW MT     SUNNY     56  34  43 W9        30.29S
GREAT FALLS MT SUNNY     60  29  30 SW13G20   30.23S
CHEYENNE WY    CLOUDY    41  36  82 E12       30.29R
SCOTTSBLUFF NE CLOUDY    56  41  57 W9        30.27S
OMAHA NE       MOSUNNY   70  31  23 NE16G26   30.13F
DES MOINES IA  MOSUNNY   68  30  24 E9G21     30.12F
DAVENPORT IA   SUNNY     65  37  35 N12       30.11F
CHICAGO IL     MOSUNNY   53  33  46 NE16      30.12S
EAU CLAIRE WI  SUNNY     68  28  22 N14       30.13F
LA CROSSE WI   SUNNY     69  33  26 NW10      30.13F
$$

  *****  SOME NATIONAL WEATHER *****

CITY           SKY/WX    TMP DP  RH WIND       PRES   REMARKS
LA GUARDIA NY  PTSUNNY   60  30  32 NW18G24   29.63S
RALEIGH NC     MOSUNNY   67  35  30 NW12G18   29.81R
ATLANTA GA     CLOUDY    67  38  34 W10       29.85F
NEW ORLEANS LA CLOUDY    72  65  78 NE16      29.70R
OKLAHOMA CITY  HVY RAIN  52  50  93 N10       29.96R FOG
ALBUQUERQUE NM CLOUDY    58  37  45 E17       30.06R
SALT LAKE CITY MOSUNNY   58  38  47 W16       30.21F
LOS ANGELES CA SUNNY     71  53  52 W14       29.93F
BOISE ID       SUNNY     63  25  23 VRB3      30.26F
SEATTLE WA     MOSUNNY   72  54  53 NW6       30.14F
$$

*** WEATHER ACROSS MANITOBA...SASKATCHEWAN AND ONTARIO ***
                ***ONTARIO***

CITY           SKY/WX    TMP DP  RH WIND       PRES   REMARKS
GERALDTON      MOSUNNY   55  34  44 NE7       30.15F
THUNDER BAY    MOSUNNY   63  30  29 S6        30.15F
SIOUX LOOKOUT  PTSUNNY   63  27  25 VRB6      30.16F
TORONTO        PTSUNNY   54  37  54 N15G23    29.91R
BIG TROUT LK   SUNNY     55  28  35 SE6       30.13F
PICKLE LAKE    PTSUNNY   61  25  25 VRB2      30.15F
DRYDEN         SUNNY     66  28  24 SW7       30.14F
KENORA         NOT AVBL
$$
                *** MANITOBA***

CITY           SKY/WX    TMP DP  RH WIND       PRES   REMARKS
BRANDON        PTSUNNY   54  39  58 W13       30.25F
DAUPHIN        SUNNY     57  34  41 NW5       30.23F
ISLAND LAKE    CLOUDY    43  34  70 W14       30.15R
PILOT MOUND      N/A     46  43  87 NW12        N/A
THE PAS        PTSUNNY   45  36  70 N10       30.24F
THOMPSON       CLOUDY    41  30  65 N12G18    30.15R
WINNIPEG       CLOUDY    46  41  81 NW7       30.27S
LYNN LAKE      CLOUDY    37  34  87 NW8       30.19S
CHURCHILL      LGT SNOW  28  27  93 E14       30.22F WCI  17
GILLAM         CLOUDY    45  34  65 SW3       30.07S
$$
                ***SASKATCHEWAN***

CITY           SKY/WX    TMP DP  RH WIND       PRES   REMARKS
ESTEVAN        MOSUNNY   59  34  38 NW7       30.26F
KINDERSLEY     PTSUNNY   64  25  22 SW17G24   30.15F
LLOYDMINSTER   PTSUNNY   66  27  22 SW17G24   30.09F
PRINCE ALBERT  PTSUNNY   52  37  58 S12       30.22F
REGINA         MOSUNNY   59  30  33 SW9G17    30.26F
YORKTON        SUNNY     55  25  30 NW9G17    30.25F
N. BATTLEFORD  SUNNY     64  30  27 SW14G23   30.17F
LA RONGE       PTSUNNY   46  36  66 NE9       30.18F
SASKATOON      MOSUNNY   55  37  50 S6        30.23F
SWIFT CURRENT  MOSUNNY   61  28  29 SW8       30.19F
$$
NOTE: THESE ARE AUTOMATED STATIONS WITH LIMITED QUALITY CONTROL
      "FAIR" INDICATES FEW OR NO CLOUDS BELOW 12,000 FEET WITH NO
      SIGNIFICANT WEATHER AND/OR OBSTRUCTIONS TO VISIBILITY.
      SKY/WX - SKY CONDITION AND SIGNIFICANT WEATHER.
      TMP - AIR TEMPERATURE.    DP   - DEWPOINT TEMPERATURE.
      RH  - RELATIVE HUMIDITY.  PRES - PRESSURE.
      HX  - HEAT INDEX.         WCI  - WIND CHILL INDEX.
$


USA.gov is the U.S. government's official web portal to all federal, state and local government web resources and services.